Theta_e
320 320 317 319 318 316 315 313 318 320 318 319 320 324 324 321 319 317 316 315 313 316 319 320 320 320 319 317 319 315 310 313 317 318 318 317 316 315 314 314 312 312 311 307 306 308 308 308 309 309 310 312 314 316 320 321 322 323 325 326 327 328 330 332 333 333 334 334 334 335 335 335 335 336 336 336 336 335 335 335 334 334 333 333 332 332
317 319 318 319 317 315 315 316 318 318 318 319 319 322 322 319 320 316 314 316 313 314 318 319 320 320 319 318 317 314 312 315 318 317 316 316 314 312 313 313 312 310 308 307 307 307 307 309 308 309 309 308 310 312 314 317 319 321 323 324 325 326 327 329 330 331 332 332 333 333 333 334 334 334 335 335 335 335 335 335 335 334 334 334 333 332
316 320 319 315 314 314 314 317 322 323 324 323 320 322 322 319 320 316 314 316 313 315 320 321 321 320 317 318 316 313 314 314 314 314 313 313 312 311 311 311 311 310 310 310 308 305 306 308 308 308 309 309 309 310 311 313 317 319 321 323 323 324 325 326 328 330 330 331 331 332 331 332 332 333 333 333 333 334 334 334 335 335 334 334 334 333
318 321 318 312 312 314 315 318 322 323 323 324 324 323 321 319 320 319 316 315 313 313 318 321 319 317 317 320 319 311 309 311 310 312 312 310 311 311 309 310 310 310 311 312 310 305 303 305 307 307 308 309 309 309 310 311 314 317 319 321 322 323 324 325 326 327 329 330 330 331 331 331 331 331 332 332 332 332 332 333 334 334 334 334 334 334
318 315 310 310 313 317 317 316 319 321 318 320 329 333 325 323 323 319 316 317 316 312 314 316 316 322 326 328 326 313 309 313 310 312 315 312 309 309 308 309 309 310 310 310 312 309 304 303 305 306 306 308 308 308 310 311 312 315 318 320 322 323 324 325 326 326 328 329 330 330 330 330 330 330 330 330 331 331 331 332 332 332 333 333 334 334
316 309 309 313 314 319 319 317 321 324 319 317 327 332 327 330 328 320 318 320 320 315 311 310 314 330 336 330 328 319 316 319 313 313 317 314 310 310 311 310 309 309 309 309 311 309 303 301 304 306 306 306 307 308 309 310 312 314 316 319 321 323 324 325 326 326 327 328 329 329 329 329 329 329 329 329 329 329 330 330 330 330 331 332 333 333
315 309 312 317 318 319 317 317 318 321 322 317 319 321 323 332 329 323 321 317 319 315 308 310 314 322 327 325 326 319 317 321 316 315 316 314 314 315 316 317 315 313 314 315 315 310 305 304 305 307 309 308 308 308 308 309 310 312 315 318 320 322 323 324 325 326 327 328 328 328 328 328 328 328 328 328 328 328 328 328 328 329 329 330 330 331
313 313 315 317 322 322 318 319 316 317 323 317 315 319 325 330 327 328 327 322 322 315 314 322 319 315 319 320 322 316 316 322 318 316 317 316 316 317 319 322 322 321 320 320 323 320 310 305 306 308 310 311 310 310 309 308 309 311 313 316 319 321 322 324 325 325 326 327 328 328 328 328 328 328 328 328 328 327 327 327 328 328 328 329 329 329
314 318 318 319 323 323 321 321 317 319 325 318 313 318 323 325 329 334 335 331 323 312 319 328 315 312 322 324 323 315 313 320 318 314 317 316 315 317 319 322 323 323 320 318 322 320 310 306 308 310 310 311 311 311 310 309 309 310 313 316 318 321 322 323 324 325 326 327 327 328 328 328 328 328 328 327 327 326 326 326 327 327 327 327 327 328
314 315 315 319 321 321 320 317 315 322 325 316 310 315 319 321 326 329 331 330 321 315 326 326 312 311 320 327 329 315 309 318 318 315 316 316 315 315 318 320 322 322 320 320 317 309 306 308 309 310 311 311 311 311 310 310 310 311 313 315 318 320 322 323 324 325 325 326 327 327 327 328 328 328 327 327 326 326 325 325 325 325 325 325 325 325
313 311 312 316 316 317 316 314 313 318 317 312 316 320 319 324 328 327 327 324 317 324 330 319 313 313 312 323 329 314 309 315 316 315 316 318 318 316 318 320 322 324 323 325 321 308 305 309 311 311 312 312 311 312 311 311 311 311 312 314 316 318 320 321 323 324 324 325 326 326 327 327 327 327 326 325 325 325 325 325 325 325 324 324 324 324
314 313 314 315 314 315 318 317 312 311 312 317 325 325 318 324 328 328 330 320 315 330 326 313 312 313 311 320 320 314 315 315 314 315 315 316 318 319 321 320 321 325 324 325 325 316 308 307 309 310 311 312 312 312 312 312 312 312 312 313 314 315 317 318 320 322 323 324 325 326 326 326 326 326 326 325 325 325 325 324 324 324 323 323 323 322
318 318 316 314 313 315 321 323 314 313 318 320 322 324 321 323 321 325 332 322 319 326 316 310 313 312 314 318 315 316 319 316 315 315 314 315 317 320 320 320 322 322 323 323 323 321 314 307 306 308 309 311 312 312 312 313 312 312 313 312 313 313 313 315 316 317 319 320 322 323 324 324 325 325 325 325 325 325 324 324 323 323 322 322 322 321
321 323 318 315 315 314 317 321 318 317 320 317 317 321 323 323 317 320 324 316 316 320 311 309 312 313 317 316 315 317 313 313 314 313 315 316 316 319 319 321 324 320 321 323 321 323 319 308 305 308 309 310 311 312 312 312 312 312 312 312 312 313 312 313 313 313 314 315 316 317 319 320 321 322 323 323 323 323 323 322 322 322 321 321 321 320
322 323 320 318 317 315 315 318 321 322 318 315 316 316 318 327 326 322 322 320 321 321 313 309 312 321 320 309 313 317 312 313 313 311 314 314 314 319 319 321 324 320 322 323 322 321 314 306 307 309 309 310 311 311 312 313 312 312 311 312 312 312 312 312 312 312 312 312 312 313 313 314 315 317 318 318 319 320 320 320 320 320 319 319 319 319
319 319 319 316 313 314 317 316 318 320 318 315 314 313 314 322 325 317 314 319 321 317 315 312 316 325 318 307 312 312 310 313 311 309 311 311 314 319 318 320 321 322 323 322 322 321 311 306 308 308 308 309 310 310 311 312 313 313 312 312 311 311 311 311 312 312 311 311 311 311 311 312 312 312 313 314 315 315 316 316 317 317 317 317 317 317
318 316 315 315 314 313 315 314 315 318 318 315 313 317 318 317 322 317 308 309 312 312 315 314 317 323 316 311 315 311 309 311 309 310 311 311 315 318 317 318 318 320 320 318 320 318 310 306 307 307 308 308 309 309 310 311 312 313 313 312 312 311 311 311 311 311 311 311 311 311 311 311 311 311 312 312 312 313 313 314 315 315 315 315 315 316
321 318 314 316 316 311 310 313 316 315 315 317 319 319 314 311 318 319 313 315 316 315 318 315 314 320 317 316 319 313 310 311 311 312 313 314 318 317 316 316 315 316 316 316 316 312 306 304 306 306 306 308 309 309 310 310 310 311 311 311 311 311 310 310 310 310 309 310 310 310 310 310 310 310 311 311 311 312 312 312 313 313 314 314 314 314
322 320 313 313 316 313 312 315 316 313 310 317 320 316 314 317 320 315 313 321 318 313 321 320 312 311 313 320 323 314 311 314 313 314 315 316 318 318 316 315 315 316 316 317 318 315 307 304 305 306 306 308 309 309 310 310 310 310 310 310 310 310 310 309 309 309 308 308 308 309 309 309 309 309 310 310 310 310 311 311 311 312 312 313 313 313
319 322 314 311 313 315 316 316 318 317 312 311 312 309 315 325 324 316 313 318 316 312 319 321 317 316 317 319 321 313 313 314 312 314 317 316 318 318 316 316 317 318 319 318 319 317 308 303 305 305 306 307 308 309 310 310 310 310 309 310 310 310 309 309 309 308 308 308 308 308 308 308 308 308 309 309 309 309 310 310 310 311 311 311 312 312
314 317 314 312 312 315 319 318 317 318 314 313 313 312 315 317 315 315 314 314 317 319 320 319 320 327 322 314 315 313 310 310 312 316 317 316 317 316 315 316 316 316 316 315 317 317 307 303 305 305 306 308 308 309 309 309 310 309 309 310 309 309 309 309 309 309 309 309 308 308 308 308 308 308 308 308 308 309 309 309 309 309 309 310 310 310
314 313 316 317 316 317 320 316 313 315 314 313 314 314 315 315 315 317 315 312 313 316 321 317 315 325 321 307 309 312 308 309 313 315 316 316 315 313 312 314 315 316 316 317 321 315 304 302 305 304 306 307 307 308 308 308 309 308 309 308 308 308 308 308 308 309 309 309 309 309 309 309 308 308 308 308 308 308 308 308 308 308 308 309 309 309
316 319 323 321 319 318 315 310 308 312 314 313 314 316 316 315 317 320 319 316 312 310 314 314 313 325 325 308 306 311 307 308 313 315 317 317 313 313 313 313 316 318 318 321 320 308 301 304 305 303 305 305 305 306 306 307 307 306 307 307 308 308 306 307 307 307 308 309 310 310 309 308 308 307 308 307 307 307 307 308 307 307 307 308 308 308
315 319 320 319 321 321 316 311 309 310 312 313 316 317 316 315 318 324 325 320 316 313 314 313 312 325 331 315 308 309 307 308 312 314 317 316 314 314 315 315 319 321 321 322 315 304 302 305 304 303 304 303 303 304 304 305 305 305 306 307 307 307 306 307 307 307 309 309 310 310 309 308 308 307 307 307 307 307 307 307 307 307 307 307 307 307
313 317 318 317 321 321 319 318 316 314 314 317 320 317 316 318 318 318 317 314 314 318 319 316 317 326 329 317 309 308 310 311 312 313 315 315 314 313 314 318 323 322 318 316 313 307 304 303 302 302 302 302 302 303 302 303 304 304 305 305 306 306 307 307 308 308 309 309 310 310 309 309 309 308 307 307 307 307 307 307 307 307 307 306 306 307
314 317 317 316 316 316 317 318 317 317 315 316 320 317 314 317 316 314 317 315 315 319 317 315 319 322 318 313 309 309 312 312 312 313 315 314 314 315 316 319 321 317 312 311 311 309 305 302 301 301 301 301 301 302 302 302 303 304 304 304 304 305 306 307 307 308 308 308 309 309 309 309 309 308 308 307 307 307 307 307 306 306 307 306 306 306
321 318 313 314 314 312 314 318 318 319 318 316 318 317 314 315 315 317 322 319 316 317 315 315 317 316 312 311 310 311 313 314 314 314 315 314 315 318 318 318 317 313 310 308 308 306 303 302 300 299 300 300 300 301 301 301 302 303 304 304 304 304 305 307 307 307 308 308 308 308 308 308 308 307 307 307 307 307 307 307 306 306 306 306 305 305
322 317 313 314 314 312 316 322 319 318 319 318 318 318 316 315 315 317 318 315 316 317 314 313 316 314 313 313 313 313 314 315 316 316 316 315 315 316 315 314 312 308 305 305 305 304 304 304 301 298 299 300 300 301 301 301 302 302 302 303 303 304 304 305 306 306 307 307 307 306 306 305 306 306 306 306 306 306 307 306 306 306 306 306 305 305
319 315 315 313 312 313 317 321 319 317 318 317 317 318 317 315 315 315 315 314 316 316 313 314 316 314 313 314 314 313 312 314 316 315 314 314 315 314 314 315 314 311 310 311 310 308 309 307 301 298 299 300 300 300 300 301 301 302 302 302 303 303 303 303 304 304 304 304 304 304 304 303 304 304 304 305 305 305 306 305 305 305 305 305 305 305
317 317 318 313 310 313 317 319 317 316 317 316 316 317 315 315 315 314 314 314 314 314 314 317 319 316 314 315 313 311 312 315 316 315 314 315 317 320 322 323 320 316 315 314 311 309 308 303 297 297 299 299 300 300 299 299 300 300 301 301 301 302 302 301 301 301 301 301 301 301 301 300 301 301 302 302 302 302 303 303 304 304 304 304 304 304
312 317 319 313 310 314 315 316 315 314 316 317 316 315 314 314 314 313 314 314 314 314 314 316 319 316 315 317 316 314 315 315 315 317 319 319 321 324 326 324 319 314 312 311 309 309 308 301 296 297 299 298 299 299 299 298 299 299 299 299 300 301 301 301 301 301 301 300 299 299 298 298 298 298 298 298 298 298 299 300 301 301 302 303 302 302
312 316 318 314 315 317 314 314 315 313 313 315 316 316 314 313 314 313 313 314 314 315 315 315 316 314 313 316 316 315 317 318 318 321 321 320 320 322 322 318 314 311 309 309 308 308 308 302 297 297 298 298 299 299 298 298 298 298 298 300 301 302 303 304 304 304 303 301 300 300 299 299 298 298 298 298 297 297 297 297 298 298 299 300 300 300
316 320 321 317 318 318 312 313 318 316 315 316 316 315 313 312 313 312 312 313 314 314 315 315 314 314 315 314 313 316 318 320 321 321 320 319 316 315 315 313 310 308 307 307 307 306 304 300 297 297 298 299 298 298 298 298 297 297 298 299 301 303 304 305 305 305 304 303 303 302 301 301 301 301 300 299 299 298 298 297 297 297 297 298 298 298
318 323 323 319 321 319 312 314 318 317 316 317 316 315 313 311 312 313 313 313 312 312 314 314 314 318 318 315 315 320 320 320 320 317 316 316 314 311 310 308 307 307 306 305 304 301 298 297 298 298 299 298 298 298 298 297 296 297 298 299 301 303 303 304 304 304 303 303 303 303 302 302 302 302 301 301 300 300 300 299 298 297 297 297 297 297
319 322 320 319 321 318 312 315 319 318 316 317 320 319 314 311 312 312 313 313 312 312 314 314 314 316 317 317 319 321 320 317 315 313 311 311 310 310 308 306 305 305 304 305 303 298 296 297 298 297 297 298 298 297 297 297 297 298 299 300 301 302 302 302 302 302 302 302 303 303 302 302 301 301 301 301 300 300 300 299 298 298 298 297 297 297
320 321 318 318 319 316 314 317 320 319 316 317 321 318 313 313 313 312 314 314 314 314 314 313 312 312 315 319 318 316 315 311 308 307 307 307 308 308 307 305 304 303 302 301 300 297 297 297 297 297 297 298 297 297 297 297 297 299 300 301 301 301 301 301 301 301 300 301 302 302 301 300 300 300 300 299 299 299 298 297 297 297 296 296 296 296
318 319 318 318 318 316 316 317 317 318 318 317 319 317 313 315 315 314 316 316 314 314 312 313 313 312 315 320 314 308 307 307 306 305 304 304 305 304 302 301 301 300 299 297 298 297 298 298 297 297 297 297 298 297 297 297 298 299 300 301 301 301 301 300 300 300 299 300 301 301 300 299 298 298 297 297 296 296 296 296 295 295 295 295 295 295
315 316 317 317 317 316 317 318 317 319 319 317 317 316 315 318 317 315 316 316 315 315 312 312 313 313 316 316 309 305 308 311 311 308 304 304 304 302 299 298 297 297 297 297 298 298 298 298 297 297 297 297 298 297 296 296 297 298 299 300 299 299 299 299 298 298 299 300 300 300 300 299 297 296 296 295 295 294 294 294 294 294 294 293 293 294
312 314 315 315 316 316 317 318 318 318 318 317 319 316 314 317 318 314 314 315 315 316 315 313 312 314 317 314 306 305 310 314 314 309 307 306 303 299 299 298 296 297 297 297 297 297 297 297 297 297 297 297 297 296 295 295 295 296 297 297 297 297 297 296 296 296 297 298 299 300 300 299 298 296 295 294 294 294 293 293 293 293 293 292 292 292
311 313 314 314 315 315 315 316 317 316 317 317 317 313 310 313 315 315 315 316 317 318 318 317 315 314 314 309 304 306 312 315 315 311 307 304 300 296 296 297 296 296 297 296 296 296 296 296 295 296 296 295 295 295 294 294 294 294 295 294 295 296 295 294 294 294 295 296 298 299 299 298 298 296 294 293 293 293 293 293 292 292 292 292 292 291
312 312 313 314 315 314 315 316 315 316 319 318 314 311 310 311 312 315 317 317 320 319 313 311 314 314 310 305 304 308 310 309 308 307 303 300 299 296 295 295 295 295 295 295 295 295 295 294 294 294 294 293 293 293 292 292 292 293 293 293 293 294 293 292 292 293 294 296 297 298 298 298 298 297 295 294 292 293 293 293 292 292 291 291 291 291
313 314 313 314 315 314 315 316 314 316 321 317 310 308 309 312 316 319 314 311 315 316 309 306 311 311 307 305 306 306 304 300 301 303 301 301 301 297 294 294 295 295 294 294 294 293 293 293 292 292 292 292 291 291 291 291 291 291 291 291 292 292 291 291 291 291 292 294 296 297 298 298 297 296 295 294 292 292 293 293 292 291 291 290 290 290
314 315 314 313 315 315 315 315 316 317 315 311 309 308 309 314 321 322 313 305 305 308 306 305 307 305 303 304 304 301 300 300 300 301 300 300 299 295 293 294 294 293 293 293 292 292 291 291 290 290 290 290 290 290 289 289 289 289 289 290 291 290 289 289 290 290 291 292 294 295 295 296 295 294 293 293 291 290 291 292 291 291 290 290 289 289
314 315 315 314 314 315 315 315 316 317 312 309 312 314 313 314 316 317 317 311 304 303 304 304 303 302 303 304 302 300 301 301 301 301 300 300 297 294 293 293 293 292 292 291 290 290 289 289 289 288 288 289 289 288 288 288 288 288 288 289 289 288 287 288 288 288 289 290 291 292 292 292 292 292 291 291 290 289 290 290 290 290 290 289 288 288
312 313 314 314 314 313 314 314 314 314 311 309 310 312 313 312 307 306 313 313 306 304 305 305 304 303 301 301 301 301 301 301 301 300 299 298 297 294 292 291 291 291 290 289 288 288 287 286 286 286 286 287 288 287 287 286 286 286 286 287 286 286 285 286 285 286 287 288 289 290 290 291 291 291 290 289 289 288 289 289 289 289 289 288 287 287
308 309 310 312 313 311 310 311 310 308 306 306 305 304 305 307 303 302 309 312 307 304 304 303 304 303 300 301 303 302 300 300 298 297 296 296 294 291 290 290 290 288 287 286 285 285 284 284 284 284 284 285 285 285 285 284 284 284 284 284 284 284 284 284 284 285 285 286 288 288 288 288 290 290 290 289 288 287 287 288 287 288 288 287 286 286
306 307 307 309 312 313 312 312 310 306 303 303 304 302 302 302 300 301 307 308 304 302 301 300 301 301 299 302 304 302 298 298 297 295 293 292 291 289 288 287 287 285 284 283 283 282 282 282 282 282 283 283 283 282 282 282 282 282 282 282 282 282 282 283 283 283 283 283 284 285 286 286 287 287 287 287 287 286 287 287 287 287 287 286 286 285
307 306 308 309 310 310 309 307 304 301 298 298 301 304 303 302 299 298 298 298 296 296 296 295 296 299 300 301 301 299 296 295 294 293 291 289 288 286 285 284 283 282 281 281 280 280 280 280 281 281 280 280 280 280 280 280 280 280 280 280 280 281 281 281 281 281 281 281 282 283 284 284 284 284 284 285 285 285 286 286 286 286 286 286 286 285
306 306 308 310 308 306 305 303 300 301 301 299 299 300 299 296 295 294 293 293 293 294 294 292 291 292 294 295 296 296 295 291 288 288 288 286 285 283 282 281 280 279 278 278 277 278 278 278 278 278 277 277 277 277 277 277 278 279 279 279 279 279 280 280 279 279 279 280 281 282 282 283 283 283 283 283 284 284 284 285 285 286 286 286 286 286
304 306 307 308 306 306 307 305 302 304 307 302 299 298 295 292 292 293 293 294 293 293 294 293 289 286 285 286 287 291 293 289 283 283 284 283 281 280 278 277 276 276 276 275 276 276 276 276 275 275 274 274 274 274 274 274 275 276 277 277 278 278 278 278 278 278 278 279 280 281 281 282 282 282 282 282 282 283 283 285 285 285 285 286 286 286
305 306 306 306 307 307 307 306 302 305 307 302 297 296 293 290 292 294 293 293 292 290 291 293 293 289 286 281 280 283 287 283 279 279 280 278 276 276 275 274 274 274 274 274 274 274 273 273 272 272 272 272 271 271 272 272 273 275 276 277 276 276 276 276 276 276 277 277 278 279 279 280 281 282 282 282 283 282 283 283 284 285 285 285 286 285
Wind_Speed
3 4 3 5 7 8 7 6 6 6 6 7 5 5 3 3 2 3 3 5 1 3 3 3 4 8 10 11 13 10 4 4 9 9 8 8 7 7 7 8 8 9 10 10 13 15 16 19 21 22 24 25 27 29 31 32 33 35 35 35 35 36 35 34 34 33 32 33 32 32 33 34 33 33 33 33 33 33 33 33 33 33 33 33 34 34
4 5 7 6 7 7 7 7 8 7 7 6 6 5 1 1 1 2 1 4 3 1 2 2 4 9 10 11 12 9 6 7 9 9 9 9 8 7 7 10 9 8 8 9 12 15 16 17 18 19 20 22 24 27 29 31 33 34 34 34 36 35 34 35 36 35 34 35 34 33 34 33 32 33 33 34 35 34 34 33 33 34 34 34 34 34
2 4 7 5 5 8 7 5 8 8 7 6 4 5 2 2 2 3 3 4 5 1 3 4 5 9 10 11 12 9 7 8 7 7 8 8 8 8 8 9 8 8 9 8 10 12 14 16 17 18 19 21 24 25 26 28 30 31 32 34 35 35 35 36 36 36 36 36 35 34 32 31 30 31 33 34 34 34 35 35 34 34 34 34 33 34
4 5 5 6 7 9 6 4 8 8 5 5 4 5 3 2 1 1 2 5 4 2 1 3 4 8 7 7 9 6 5 7 6 6 8 7 8 10 9 7 7 9 10 10 9 9 10 13 14 16 18 20 22 23 24 25 27 29 32 33 34 34 35 34 35 36 36 34 32 32 31 29 28 29 29 30 31 33 34 35 35 35 34 33 32 33
4 4 2 7 6 8 7 3 6 7 3 1 3 6 4 3 4 2 2 2 3 3 2 3 4 6 5 6 7 4 4 6 6 6 7 5 6 8 7 7 8 8 9 9 9 8 9 12 13 13 14 15 17 20 22 23 24 27 29 31 31 32 32 32 33 33 33 31 30 29 28 26 25 26 26 26 29 31 32 34 36 36 36 34 33 33
3 2 4 8 5 6 8 3 4 7 3 1 3 6 6 7 6 2 2 3 4 4 4 5 4 5 6 5 7 5 7 8 6 6 8 7 6 6 6 7 7 6 6 7 8 9 10 13 13 11 9 11 13 16 17 19 21 23 25 26 27 28 29 30 29 29 30 30 29 28 27 26 25 25 27 30 31 32 33 35 35 36 36 36 36 35
1 1 3 7 6 6 7 4 5 6 6 1 4 5 7 7 8 6 4 4 2 1 3 4 3 4 7 6 7 6 8 10 8 8 8 7 7 6 6 6 6 5 5 5 6 7 8 9 10 8 5 5 8 9 11 14 16 18 20 22 23 24 25 26 26 26 27 29 30 30 30 30 29 29 31 34 34 33 33 34 34 35 35 36 37 37
2 4 4 5 6 7 6 4 5 7 7 3 3 6 8 8 8 6 6 4 2 2 4 5 4 1 5 6 7 6 7 9 8 8 8 7 7 8 7 6 6 5 5 5 6 6 5 5 7 7 5 3 3 3 5 8 10 11 14 17 18 20 21 22 23 24 26 28 30 31 31 32 32 33 34 33 31 31 31 32 33 33 34 35 35 37
2 4 5 5 5 4 4 4 6 8 6 3 3 7 7 7 7 5 6 4 1 1 3 5 3 1 5 7 6 6 5 7 7 6 7 8 8 8 7 8 7 6 5 4 5 6 7 9 10 8 7 7 6 5 2 1 3 5 8 11 14 15 17 19 20 22 24 26 28 30 31 32 33 34 34 31 28 27 28 29 31 31 32 33 33 34
1 3 6 6 5 4 2 1 2 5 3 4 6 8 6 6 6 5 5 4 3 3 4 5 3 0 5 7 5 3 2 5 5 5 6 6 6 6 6 7 7 6 5 4 4 6 8 10 12 11 10 10 9 8 6 4 2 1 3 6 10 12 13 15 17 19 22 23 26 29 31 32 33 33 32 29 28 27 26 27 28 29 30 30 31 32
2 1 2 3 3 5 4 4 2 3 4 7 6 7 7 6 5 4 3 3 4 2 5 5 3 0 2 6 4 1 2 5 4 1 5 6 7 7 7 7 7 6 6 5 5 7 9 11 12 13 12 13 12 10 8 6 5 3 0 3 5 8 10 12 14 17 20 22 24 27 29 31 32 31 29 28 29 29 28 29 29 29 29 29 30 30
4 2 0 1 2 4 6 6 5 4 4 6 5 6 5 4 4 4 5 4 2 4 6 4 3 1 2 5 3 3 5 5 6 3 4 7 8 8 7 7 7 6 6 6 6 8 10 12 14 15 15 14 13 12 11 9 7 5 3 1 3 5 7 10 12 15 17 20 22 25 27 29 30 29 29 29 30 30 30 31 30 29 29 29 29 29
2 1 1 1 1 4 6 6 4 4 4 5 5 6 5 2 3 2 3 1 2 5 4 3 2 2 5 7 6 8 8 7 7 6 2 6 7 7 8 7 6 6 6 6 7 7 8 10 14 18 18 17 15 13 11 9 8 7 5 4 4 4 6 8 10 13 15 17 20 22 24 27 28 28 29 30 32 31 30 30 30 30 30 30 30 30
1 4 2 2 1 2 5 6 3 1 0 4 5 5 4 3 2 2 4 2 3 4 3 3 2 2 4 6 8 11 9 6 6 6 6 6 5 7 7 6 6 6 6 6 6 7 7 9 14 18 21 22 21 18 15 12 9 8 6 5 5 5 5 7 9 11 14 16 17 19 22 24 25 27 29 30 31 31 31 31 30 31 31 31 31 31
4 3 3 4 2 3 4 4 6 6 3 2 3 5 5 5 4 4 4 3 3 3 2 4 2 3 2 2 6 8 7 5 4 5 5 6 6 6 6 5 5 6 7 6 7 8 8 12 16 19 22 24 24 23 21 18 14 11 9 8 8 8 7 8 9 11 13 14 15 17 19 21 23 25 27 29 30 30 31 31 31 32 31 31 31 30
4 4 4 2 2 4 4 2 3 7 3 1 2 5 3 4 5 3 3 5 3 0 2 2 3 4 3 4 5 2 5 5 2 1 0 2 4 2 3 4 5 6 6 6 7 7 10 16 20 21 23 25 25 26 24 22 19 16 14 12 11 10 9 9 10 11 12 14 15 16 17 19 21 23 25 27 28 28 29 30 31 31 31 30 30 29
3 2 4 3 2 2 2 2 2 3 3 2 2 3 4 4 8 6 1 1 3 1 3 1 3 5 3 5 5 4 1 4 5 5 4 3 1 4 5 5 6 6 6 6 6 6 9 15 20 22 24 26 27 28 27 24 21 19 18 17 15 14 12 12 11 12 12 13 14 15 16 17 18 20 23 25 26 27 27 28 30 30 30 30 29 29
5 2 3 2 3 1 1 2 4 3 3 5 3 5 4 3 5 5 2 3 4 2 4 1 3 4 1 2 5 5 4 2 2 5 6 5 5 6 3 3 4 4 4 4 6 7 9 14 18 20 23 25 27 27 27 26 23 21 20 19 19 19 19 18 17 16 15 14 15 15 15 15 16 17 19 21 23 25 26 28 29 29 30 30 29 29
5 3 3 2 2 2 3 3 3 4 4 4 4 3 4 4 2 2 3 1 1 2 4 3 3 3 3 4 4 1 7 7 4 6 7 7 7 6 5 4 3 3 4 6 6 7 9 14 18 20 22 25 26 27 26 26 25 24 23 21 21 21 22 21 21 20 19 18 17 16 16 15 15 16 17 19 21 22 24 27 28 28 30 29 29 29
4 4 1 2 1 2 3 1 4 1 4 4 2 2 2 3 4 2 3 4 3 3 2 4 3 3 6 6 6 7 9 9 8 8 8 8 8 7 7 6 4 5 5 6 7 6 8 14 18 20 22 23 25 26 26 25 25 25 24 23 22 22 21 21 21 22 21 21 21 20 19 18 17 17 17 18 19 21 23 25 26 28 29 29 29 29
2 3 3 2 3 1 1 2 6 7 3 3 3 3 2 2 2 2 1 2 4 4 3 2 3 5 6 4 6 7 7 8 9 10 8 7 7 7 6 6 5 5 5 5 6 6 9 14 18 19 21 22 24 25 25 25 25 24 24 24 23 23 23 23 22 22 22 22 22 22 22 22 21 19 19 19 20 22 23 24 26 27 27 28 29 29
2 3 4 2 0 3 3 3 3 5 5 5 5 6 6 4 4 3 2 1 2 3 4 3 3 7 6 3 5 6 6 8 8 10 9 7 7 6 4 2 1 2 4 5 6 6 9 15 17 18 21 23 24 24 25 25 25 25 25 25 24 24 24 24 24 24 23 23 23 23 23 24 24 23 22 22 22 23 24 25 25 26 26 28 28 28
3 4 4 2 3 5 3 3 2 2 1 3 3 4 6 4 5 6 5 3 2 1 2 3 1 7 6 3 4 6 5 6 6 7 8 7 6 3 1 2 4 3 4 5 5 5 9 13 15 17 20 23 24 24 24 25 25 25 25 25 25 26 26 25 25 25 25 25 25 25 25 25 25 25 25 25 25 25 25 26 26 26 26 27 27 27
2 4 4 0 3 3 4 4 2 2 2 2 2 2 5 3 3 5 5 4 4 4 3 3 2 6 6 2 2 5 5 5 5 4 6 6 3 0 1 4 4 4 5 6 5 6 9 11 14 17 19 21 22 23 23 23 24 25 26 26 27 27 27 27 27 28 28 27 27 27 27 27 27 26 26 26 26 26 26 26 26 26 27 27 27 27
3 2 4 3 2 3 4 4 3 2 1 3 3 2 4 4 6 4 2 4 2 5 6 5 4 6 6 4 3 3 5 5 5 3 3 4 2 1 2 4 4 4 5 6 5 6 6 6 9 12 14 16 19 21 21 22 23 25 26 26 27 27 27 28 29 29 29 29 29 28 29 29 29 29 29 28 28 28 27 27 28 28 27 28 28 28
5 3 5 6 6 6 5 4 4 4 3 2 2 4 5 6 8 5 3 4 3 5 6 6 5 5 5 4 4 5 7 6 5 4 3 1 2 2 3 5 4 2 2 5 5 3 2 3 5 7 10 13 15 17 18 21 24 25 25 25 25 26 26 27 28 28 29 29 29 30 30 30 30 31 30 30 30 29 28 28 28 28 28 28 29 29
3 2 5 8 10 11 8 5 3 7 6 4 4 7 7 7 9 6 5 4 5 3 4 7 5 4 4 3 4 6 6 6 6 5 3 4 4 5 5 5 4 2 2 4 4 3 2 1 2 4 7 9 12 15 19 22 24 25 25 25 25 26 26 27 27 27 28 28 29 29 29 30 30 30 30 30 30 30 29 29 28 28 28 28 29 30
4 3 6 8 10 8 5 5 5 7 8 10 9 9 9 9 10 9 8 10 6 5 7 9 7 6 7 7 8 9 7 6 7 6 5 4 5 6 5 4 4 4 4 4 3 2 2 2 3 7 12 15 18 21 23 23 23 23 23 24 25 26 27 27 27 27 28 28 29 29 29 29 29 29 29 29 29 30 30 29 29 28 28 28 29 31
5 5 5 6 8 6 3 4 6 7 7 9 11 13 13 12 12 13 15 14 9 7 12 7 11 11 9 8 11 11 9 9 8 7 6 6 6 6 5 4 3 2 0 2 4 6 6 6 7 12 16 20 22 24 24 23 24 24 23 24 25 26 27 27 26 26 26 26 27 28 28 28 29 29 29 29 29 29 29 29 29 29 29 29 29 29
4 3 3 6 7 7 2 2 5 7 6 6 9 13 13 14 16 17 18 17 12 12 10 6 9 13 8 9 12 8 7 8 6 5 5 4 3 2 3 3 5 6 6 7 7 7 6 6 8 12 15 18 20 21 22 23 24 24 24 24 26 27 27 26 25 26 26 26 26 27 27 28 28 29 29 29 29 29 29 29 29 29 29 29 30 29
3 3 3 5 4 5 1 2 2 3 5 5 7 8 10 13 15 16 17 13 9 10 8 4 5 10 5 8 8 4 4 5 4 4 2 1 2 4 5 5 6 6 5 5 5 5 6 6 9 12 14 16 18 20 21 23 24 24 25 26 28 29 29 28 27 28 28 28 28 28 29 29 30 30 30 30 30 30 29 29 29 28 28 28 29 29
3 2 2 5 4 5 1 5 4 3 3 2 5 8 12 13 12 13 12 8 8 11 11 7 8 10 5 8 6 3 3 5 6 5 2 3 2 5 6 4 3 3 3 4 5 5 5 6 9 12 14 17 18 19 21 23 24 25 27 29 30 31 31 31 32 32 32 31 32 33 33 34 35 34 33 33 33 33 32 31 31 30 30 29 29 28
4 4 2 4 5 4 3 4 7 7 4 4 8 11 15 14 11 9 7 8 11 12 10 10 10 7 4 8 7 5 6 7 7 5 2 1 2 5 6 5 3 0 1 2 3 4 5 7 9 12 15 17 18 19 21 21 22 25 27 28 30 31 31 32 33 34 34 35 36 37 38 39 40 40 40 39 38 38 36 35 34 33 33 33 32 30
3 5 3 3 4 2 2 3 6 4 5 7 6 8 14 15 13 11 10 12 13 10 5 5 5 2 7 8 8 8 8 7 5 4 4 4 5 5 5 4 2 1 2 2 3 3 5 7 10 12 14 15 16 18 19 19 21 24 26 27 28 30 30 32 32 33 34 35 36 38 39 40 41 42 43 42 42 42 41 40 39 37 37 36 35 34
3 4 2 2 3 2 2 3 4 5 8 5 4 2 8 11 12 13 12 10 8 7 7 9 9 5 8 8 6 8 8 5 3 4 4 5 6 6 5 3 1 1 2 3 3 4 6 8 10 12 13 15 16 18 19 20 22 24 26 27 28 29 30 31 31 31 33 35 37 38 39 40 41 42 42 43 43 43 43 42 41 40 39 38 37 36
5 3 2 1 2 3 2 4 5 4 2 2 5 3 3 6 7 7 9 8 7 10 10 12 15 9 7 6 4 5 6 4 5 3 3 4 5 5 6 4 1 1 2 3 4 6 8 10 12 13 15 16 17 19 20 22 24 25 26 27 28 29 30 31 31 31 33 35 36 38 38 39 40 41 41 41 41 41 41 40 40 39 39 39 38 37
6 5 2 1 3 3 3 5 3 4 4 4 6 3 4 6 7 7 6 8 9 11 10 12 13 8 6 6 3 6 6 6 5 1 4 3 3 3 4 3 2 1 2 3 5 6 8 10 12 14 16 18 19 20 21 22 23 25 26 27 28 30 30 31 31 32 33 35 36 37 37 37 38 39 39 38 38 39 38 38 38 38 37 37 39 38
4 4 5 4 3 3 3 3 1 2 7 8 5 4 6 8 9 9 5 6 8 10 13 13 12 10 7 6 6 7 6 5 3 5 5 5 4 2 1 1 1 1 3 6 7 9 10 11 12 14 15 17 18 19 20 21 21 23 25 26 27 29 29 30 31 32 34 35 36 36 37 37 36 37 37 37 37 37 37 37 37 36 35 35 36 38
4 2 4 5 3 3 4 4 4 6 8 7 5 4 6 8 9 9 4 7 6 7 10 10 10 10 9 9 8 8 7 4 6 6 5 6 6 3 2 1 3 4 5 7 8 10 11 13 14 15 15 17 19 19 19 19 19 20 22 23 25 26 26 28 30 31 33 34 35 35 36 36 36 35 35 36 36 35 36 36 36 35 35 34 35 36
5 3 4 5 5 6 6 5 4 4 5 5 5 4 4 6 10 9 4 8 4 5 9 11 12 11 9 10 9 8 7 7 6 5 6 7 5 4 3 1 3 4 5 6 7 8 9 11 13 14 16 17 18 19 19 18 19 20 21 22 24 24 25 27 29 31 31 33 33 34 35 35 35 35 34 34 35 35 35 35 35 35 35 35 35 35
3 3 4 6 7 8 9 7 4 3 5 5 4 4 5 6 7 6 8 6 4 6 6 8 9 7 8 10 8 6 5 5 3 5 7 7 5 4 3 2 2 3 4 5 5 5 7 9 11 13 14 15 17 17 17 17 18 20 21 22 23 24 25 27 29 30 31 32 33 34 35 35 35 35 35 34 34 35 36 35 34 35 34 35 35 35
4 3 3 6 6 6 7 7 5 5 4 4 4 3 4 5 4 7 6 2 4 6 3 3 5 6 8 9 7 5 4 3 6 7 6 6 6 4 2 2 2 3 4 4 5 5 6 9 11 13 15 16 16 17 16 16 17 20 21 22 24 25 26 29 30 31 32 33 33 34 34 34 34 34 35 34 33 34 36 35 34 33 33 32 33 34
6 4 3 4 5 4 4 6 6 5 3 8 9 2 2 4 5 5 3 2 1 4 4 3 5 6 8 7 6 7 7 6 6 7 6 5 5 3 2 2 3 4 4 5 6 6 6 8 11 14 16 17 17 17 17 16 18 20 22 24 26 27 28 30 30 31 32 33 34 34 34 35 35 34 34 34 33 32 34 35 34 33 32 30 30 31
5 5 4 4 5 5 5 6 5 3 4 7 8 4 5 6 4 4 6 3 2 3 4 4 4 5 7 9 9 8 8 7 6 6 6 4 3 1 0 1 1 3 4 5 6 6 7 9 12 15 17 17 18 18 17 16 18 20 22 25 27 28 29 30 30 31 33 34 34 35 35 36 36 36 35 34 33 31 33 33 33 33 31 29 27 28
5 5 4 4 5 4 4 4 4 3 4 5 2 1 3 3 1 3 6 5 3 4 4 5 6 5 6 9 10 7 6 6 6 5 5 4 3 2 2 2 2 2 3 5 6 7 8 10 12 15 18 19 19 19 18 17 17 19 22 25 27 28 29 30 31 32 34 35 35 36 36 37 37 37 36 34 32 31 32 32 32 32 32 29 27 26
2 2 2 2 3 3 2 2 2 1 1 1 2 2 0 1 1 3 5 5 5 5 4 6 8 7 6 8 8 6 5 6 6 5 4 4 3 3 3 3 1 2 4 6 8 9 11 13 13 14 16 19 20 20 20 19 18 20 23 25 26 27 28 28 30 31 33 33 34 35 35 35 37 37 36 34 32 31 31 30 30 31 32 30 27 26
3 2 2 1 3 4 3 3 2 1 1 0 2 2 2 2 1 2 4 5 5 5 5 6 7 7 6 7 8 8 6 6 6 5 4 3 3 4 3 2 1 3 6 9 11 13 14 15 15 14 16 18 20 21 22 21 20 21 24 25 24 24 25 26 28 30 32 32 32 33 32 32 34 34 34 34 32 31 31 31 29 29 31 30 28 26
2 3 3 2 4 4 3 3 2 1 1 0 1 1 2 3 3 4 4 5 6 7 6 5 6 6 5 5 8 9 7 5 5 5 4 3 2 2 1 2 4 7 9 11 12 14 15 15 16 17 18 20 22 23 23 24 24 24 24 24 24 23 24 26 27 29 32 31 30 31 30 29 31 31 32 33 32 31 31 31 29 29 30 29 27 27
2 3 4 4 3 1 1 3 1 2 3 2 2 2 2 4 5 6 6 6 8 9 8 7 7 6 6 5 5 7 7 5 3 3 2 1 1 2 4 6 7 9 11 12 14 14 14 15 17 19 20 22 22 23 24 25 25 24 23 23 23 23 24 27 29 30 31 31 29 29 29 29 29 29 30 32 33 32 32 31 28 28 31 30 27 25
4 4 3 3 4 3 4 5 6 3 1 4 5 5 4 5 7 8 7 7 7 8 8 9 8 8 8 8 6 6 6 4 3 3 2 1 2 3 5 7 9 10 12 14 15 14 14 15 17 19 20 21 22 23 25 25 24 24 23 22 23 24 25 27 29 30 30 29 28 30 30 31 31 30 29 30 31 32 34 33 29 27 28 30 29 26
5 6 6 6 5 6 7 8 8 5 2 3 6 7 6 6 7 9 8 7 6 6 7 9 8 6 6 7 8 7 6 4 4 3 1 1 2 4 6 8 10 12 13 14 15 16 17 18 18 19 21 22 23 24 24 24 24 24 23 22 24 25 26 27 27 27 27 27 28 29 30 31 32 31 31 30 30 30 31 34 34 30 27 26 27 26
Wind_Direction
94 116 173 185 188 192 185 157 140 152 140 137 130 106 140 168 244 252 265 307 355 130 246 244 263 277 275 279 278 279 321 304 276 276 272 266 264 262 260 260 256 249 255 271 274 267 261 258 256 253 252 249 247 246 243 241 239 238 237 234 234 236 233 229 227 225 225 224 224 226 228 231 233 234 235 237 238 238 239 242 244 247 249 248 248 246
87 152 211 211 191 173 147 128 112 103 91 98 128 118 94 184 239 276 261 318 350 128 259 11 335 282 269 273 271 275 295 277 259 259 266 267 266 265 264 266 265 263 272 281 275 270 265 262 259 254 251 246 245 246 243 240 240 239 235 234 235 235 231 230 228 225 225 226 224 225 228 231 233 236 237 239 241 242 244 244 244 245 245 244 245 244
101 210 224 200 151 111 93 96 96 90 89 87 110 124 139 219 254 291 300 334 3 55 267 356 344 285 272 271 269 268 265 263 258 250 256 265 271 270 260 262 274 282 288 284 272 270 269 265 259 254 249 244 245 246 244 242 241 238 235 235 236 234 232 232 231 228 229 229 228 228 230 232 233 237 240 242 244 245 246 247 246 244 242 241 241 242
169 253 234 170 137 112 83 60 91 87 79 93 108 129 172 250 160 227 298 339 8 71 258 328 317 286 290 296 287 277 267 278 287 271 263 256 255 263 265 266 272 274 279 283 283 286 285 278 265 254 248 245 244 244 242 241 239 237 237 237 235 234 233 233 232 231 232 232 231 231 233 235 236 238 241 244 245 246 246 247 247 246 243 242 242 243
189 271 174 131 120 119 113 85 113 111 71 78 139 137 159 200 175 198 287 336 358 31 30 10 334 296 319 333 299 306 339 313 313 317 303 286 264 271 284 278 261 259 268 279 289 299 301 293 282 268 257 250 245 243 242 241 240 240 240 239 237 235 234 234 234 233 231 230 230 230 231 233 236 239 240 240 242 242 244 245 246 246 245 245 245 244
209 275 132 123 97 103 121 152 176 146 123 288 208 171 168 169 159 145 42 53 35 9 354 24 20 293 318 327 277 303 348 324 330 346 323 314 316 312 307 293 278 277 274 271 281 291 299 301 297 290 275 260 255 252 249 245 243 243 243 242 240 238 237 236 235 233 231 230 229 227 226 227 229 233 236 236 239 240 242 244 245 246 246 246 245 244
184 23 90 123 120 109 122 172 209 153 122 196 227 169 143 129 125 127 102 79 87 255 325 44 106 261 316 316 278 314 337 315 330 349 335 331 338 343 330 314 313 307 295 289 289 289 295 307 315 321 314 278 271 266 255 249 246 244 243 242 241 241 240 238 237 235 233 231 230 229 229 229 228 231 237 240 242 243 245 247 248 249 249 248 247 247
134 90 76 99 102 107 132 187 207 147 124 198 222 124 121 119 127 139 107 89 192 230 330 16 101 215 301 281 278 325 332 318 340 345 337 346 345 345 344 339 344 334 319 311 306 306 308 331 346 350 1 355 333 304 255 253 254 251 246 243 242 242 241 241 239 237 235 233 232 233 233 233 233 236 242 246 247 248 249 250 251 252 252 251 250 249
102 138 164 135 106 125 172 213 185 134 113 232 190 116 119 120 124 123 94 90 17 21 313 327 51 161 271 275 302 346 329 314 337 329 321 334 336 339 344 344 345 337 324 293 287 313 338 4 16 20 29 28 25 33 34 272 264 255 246 241 240 241 242 242 241 240 239 237 236 236 235 236 238 241 245 247 249 251 251 251 252 253 253 253 253 253
58 180 185 140 134 175 184 307 151 114 103 185 141 98 80 77 81 78 87 104 51 44 242 276 15 134 265 286 311 2 306 271 286 295 296 305 316 326 337 341 337 334 336 315 298 329 352 13 25 33 39 37 36 41 50 56 51 246 233 235 237 240 241 242 242 242 242 240 238 238 238 239 242 244 246 247 249 251 252 253 253 253 254 254 255 254
318 274 166 115 142 174 134 79 52 70 121 139 113 77 63 40 36 50 56 84 66 337 252 259 307 196 268 285 272 227 232 214 196 292 321 323 332 340 345 348 348 349 355 358 359 10 22 33 38 41 42 40 39 41 44 47 48 51 347 237 239 242 243 243 244 244 245 244 241 241 242 244 246 248 248 249 250 251 252 253 254 255 256 256 256 256
358 37 156 154 135 128 102 70 36 33 88 104 92 90 81 7 9 26 0 39 98 256 261 271 290 162 210 265 254 242 258 226 182 146 7 343 339 339 340 345 349 350 354 9 21 23 32 38 37 40 43 42 43 42 40 38 35 33 20 328 268 258 254 253 251 251 251 249 248 249 249 250 251 252 252 253 255 256 255 257 259 259 259 259 258 257
26 58 294 332 182 150 114 83 43 0 20 72 97 102 94 10 10 5 318 355 199 243 269 285 269 192 231 249 256 263 260 241 215 194 244 316 319 322 331 338 338 343 359 18 28 28 32 33 29 32 35 37 42 44 42 39 32 26 14 349 322 299 281 272 268 265 263 260 259 259 257 257 258 257 257 258 259 261 261 262 263 263 263 263 262 261
331 308 303 100 237 197 143 128 133 231 212 125 135 128 126 117 87 253 269 287 254 258 291 290 269 249 270 262 246 249 249 237 225 215 232 264 279 292 306 311 314 339 12 23 32 36 34 28 27 30 31 32 35 37 38 38 32 26 17 358 343 330 307 292 286 281 277 275 273 270 267 266 264 263 263 263 264 265 265 266 266 266 267 266 266 267
170 269 232 165 204 185 165 172 152 143 138 161 155 127 142 154 146 196 217 199 232 270 300 295 273 190 214 261 228 232 260 270 244 235 245 260 263 273 294 308 327 1 23 28 37 41 32 30 31 31 30 29 29 31 33 32 29 24 17 3 351 345 330 314 306 297 293 291 288 282 277 274 271 269 269 268 268 268 268 269 268 269 269 270 271 272
160 240 262 273 267 152 160 231 123 111 112 219 130 105 153 186 135 135 179 171 169 304 295 269 243 211 213 282 280 281 301 298 308 323 258 271 285 324 17 12 16 23 27 29 37 33 24 29 32 30 30 29 28 29 29 29 28 25 20 12 3 358 348 334 325 316 311 306 300 294 289 285 281 277 274 273 273 272 272 272 272 272 273 273 275 275
156 254 312 341 359 83 157 229 86 115 166 152 128 165 209 167 113 112 181 57 78 170 268 234 247 290 320 295 314 30 4 305 11 47 104 140 71 72 68 39 35 35 33 32 30 25 21 27 31 31 31 30 29 29 29 30 30 26 23 18 14 11 6 359 348 338 331 321 314 309 302 297 292 287 283 281 280 280 279 277 275 275 276 276 276 277
154 138 331 28 82 15 264 131 60 36 118 121 174 202 185 121 95 106 141 14 41 226 277 306 225 286 336 258 324 51 131 221 28 76 105 110 104 107 106 56 44 36 37 38 28 25 26 30 32 34 35 34 33 33 32 34 34 33 29 22 17 14 10 6 0 354 348 339 332 327 319 312 305 299 294 290 288 285 282 280 279 278 278 278 279 279
131 122 323 13 123 312 348 95 82 8 51 118 179 170 115 134 150 93 137 155 123 219 283 309 268 255 199 223 292 172 172 185 158 126 120 122 131 138 132 98 64 44 38 35 31 26 28 31 31 32 33 35 37 37 36 37 37 36 34 28 24 19 14 11 6 1 356 348 343 339 334 328 321 313 307 302 298 292 287 285 284 282 282 283 282 281
120 127 240 319 290 304 12 103 183 212 20 45 98 108 79 128 159 158 149 161 172 189 261 311 322 261 226 218 225 214 194 176 157 140 141 150 158 158 138 112 76 53 40 27 27 26 31 34 33 34 34 35 38 40 40 39 38 37 35 32 29 24 21 18 13 8 1 355 350 346 344 340 334 326 319 314 307 301 298 296 293 289 288 288 286 284
104 132 182 320 335 219 181 224 192 170 142 97 116 158 174 68 111 153 97 115 140 156 181 267 299 267 250 211 196 210 197 178 161 145 157 174 172 166 142 115 86 54 26 12 23 30 33 31 29 35 38 39 41 41 41 40 39 38 37 34 31 26 24 21 18 14 8 2 358 354 352 348 344 339 331 325 318 312 311 308 303 300 296 292 290 287
135 142 156 138 250 202 218 263 211 177 169 159 168 184 176 145 124 150 248 241 122 137 167 175 260 270 259 186 186 205 188 189 176 149 158 184 175 159 135 126 125 17 358 358 8 20 32 28 25 33 40 40 40 37 36 36 35 35 33 31 29 26 24 21 18 15 10 8 6 2 360 356 352 348 342 337 331 325 322 319 315 311 304 299 297 293
129 107 116 147 214 213 243 286 229 203 141 132 177 190 167 156 136 151 205 221 137 131 145 123 251 272 261 188 200 226 203 201 198 156 153 178 181 155 109 289 281 299 329 339 340 360 28 27 25 33 36 35 34 31 30 30 28 28 28 26 24 22 21 18 14 12 9 8 8 6 5 3 359 354 349 345 340 336 332 328 324 318 311 307 305 299
122 104 110 44 300 306 322 342 20 42 73 129 234 181 156 180 145 146 182 170 148 175 142 97 269 268 274 273 237 229 199 200 226 189 155 172 196 208 263 279 293 319 335 336 338 3 26 28 27 31 30 27 27 26 26 25 23 24 26 25 21 18 16 12 9 8 7 6 6 4 3 2 359 357 354 350 345 341 338 333 330 325 319 315 311 305
192 156 128 113 22 352 342 345 334 309 193 192 226 184 157 134 98 101 125 101 142 205 159 148 234 253 275 328 23 111 140 166 229 236 163 166 174 161 250 282 309 340 339 328 332 351 15 30 31 31 27 24 23 22 22 22 21 23 25 24 21 17 15 13 10 8 6 3 1 359 358 357 355 354 353 351 347 343 339 336 333 329 325 320 315 310
182 176 151 152 172 196 206 215 225 206 176 193 196 174 170 141 137 156 117 100 229 222 158 173 227 251 281 338 59 115 143 166 223 275 315 264 222 225 245 272 290 312 308 297 300 314 350 38 33 27 26 26 26 23 21 21 21 21 22 21 19 16 14 14 13 11 8 5 2 358 355 353 351 349 348 347 346 342 339 337 334 331 328 324 318 313
134 184 194 188 201 205 193 193 173 127 137 193 183 167 174 171 170 157 115 167 205 158 178 220 199 180 244 242 170 183 180 184 218 248 270 260 256 253 246 253 258 222 235 254 239 207 163 109 42 21 24 24 23 23 23 21 19 16 15 15 15 13 12 12 12 12 11 8 5 2 359 355 352 348 345 343 341 339 337 335 333 331 328 324 318 314
106 212 213 199 221 219 164 175 180 139 162 188 174 171 182 181 175 164 189 212 164 116 236 231 156 171 228 218 204 209 204 213 230 224 211 220 236 242 238 233 222 207 212 212 189 132 77 61 13 10 12 13 15 16 18 18 15 11 10 9 9 9 9 9 10 10 9 7 5 3 1 358 355 351 348 344 340 337 334 332 331 329 326 323 319 315
134 215 215 185 224 232 145 177 191 164 176 181 174 183 183 177 179 185 211 215 159 180 239 197 152 200 219 202 215 214 197 207 218 206 199 203 207 207 196 184 170 168 80 36 30 24 23 12 1 3 5 8 11 9 8 9 7 6 6 5 5 6 5 6 6 7 7 5 3 1 359 357 355 354 352 350 346 342 337 333 330 327 325 323 320 317
153 221 197 170 217 237 196 200 197 173 172 176 186 192 181 182 190 194 214 218 192 214 237 143 169 225 213 190 218 214 188 203 206 196 200 197 190 159 120 80 50 37 25 19 9 4 9 1 356 359 1 4 5 2 360 359 358 359 359 358 359 0 1 2 2 3 3 2 0 358 356 354 353 352 351 350 348 346 342 338 334 330 327 325 322 320
190 213 162 141 199 252 195 122 189 186 180 192 204 199 186 192 201 206 218 217 199 230 245 144 209 254 226 190 212 196 184 224 248 252 268 13 50 78 76 55 42 36 18 6 353 348 353 352 353 357 356 356 356 356 354 352 352 353 353 354 355 356 358 359 359 360 360 359 357 356 355 353 351 350 349 347 346 344 343 341 338 335 332 329 326 323
177 184 80 108 169 260 332 113 121 85 89 237 239 211 197 197 205 213 218 202 186 217 232 222 240 255 215 177 180 169 208 250 262 262 317 8 54 104 108 103 77 47 3 350 345 344 344 345 349 348 346 347 349 351 351 349 349 351 351 353 355 356 357 358 358 358 357 356 355 354 353 352 350 349 348 346 345 343 342 341 339 338 335 332 330 326
150 146 123 137 172 270 321 129 126 97 97 257 249 213 199 202 206 208 215 218 208 204 206 216 234 241 172 158 165 180 208 229 237 227 189 176 162 130 132 139 131 121 304 314 317 323 326 332 340 340 340 345 346 348 350 350 349 349 349 352 354 355 355 356 356 356 354 353 353 352 351 350 348 347 347 346 344 343 342 341 340 340 338 335 332 328
105 123 150 163 151 240 272 127 110 127 198 235 243 194 187 197 200 197 210 222 215 207 220 248 250 157 138 161 173 181 200 214 212 196 176 167 157 145 150 158 168 269 306 304 286 292 312 326 336 339 341 345 346 347 351 352 350 348 349 352 353 354 354 354 355 354 351 350 350 349 348 347 346 345 344 344 343 341 341 341 340 339 339 336 333 329
106 108 134 132 114 142 186 115 126 204 221 245 305 212 180 184 184 196 223 234 207 206 244 265 259 210 167 185 188 173 191 196 135 129 145 146 145 140 143 158 175 296 317 313 303 310 326 332 336 338 342 345 347 351 354 354 352 350 352 353 353 354 354 352 352 352 349 348 347 346 345 344 343 343 342 341 340 339 338 338 337 337 337 335 332 329
133 122 110 113 127 127 136 167 197 235 268 288 296 294 135 130 143 183 241 260 218 203 213 233 245 229 170 189 201 145 159 142 92 93 147 155 152 136 133 147 163 191 271 301 311 319 333 340 339 339 342 346 351 356 358 356 354 352 353 354 354 353 353 352 351 350 347 346 345 343 342 341 340 339 339 338 337 336 335 335 333 334 334 332 329 327
143 142 128 181 193 149 159 202 231 332 331 257 244 236 151 141 148 164 220 250 223 205 201 218 238 232 171 170 151 116 119 103 90 243 249 218 194 153 137 152 172 217 286 320 330 332 343 348 347 347 348 350 357 1 359 355 354 352 352 354 353 352 352 351 349 347 344 342 341 339 338 338 336 335 335 334 334 332 331 330 329 330 331 329 326 324
146 160 167 198 209 144 163 223 229 262 255 238 214 186 169 170 165 157 189 249 230 206 203 211 226 222 181 147 136 133 122 113 164 224 235 228 226 208 142 119 92 359 346 349 349 351 357 357 354 353 351 352 358 1 357 353 351 350 350 351 350 349 349 348 345 342 340 338 337 336 335 334 332 332 331 330 329 328 328 327 326 326 327 325 322 320
121 134 156 184 207 169 183 223 210 215 247 251 220 193 182 171 146 129 182 255 242 196 192 200 219 218 184 157 157 152 141 172 221 224 202 201 214 204 172 42 24 20 12 8 1 356 356 355 353 353 353 354 355 354 352 348 346 344 344 345 344 343 344 343 340 337 334 333 332 331 330 330 328 328 327 326 325 325 324 323 323 323 324 322 319 317
133 139 166 188 206 201 204 228 231 225 255 258 234 214 189 154 124 120 207 252 233 178 180 187 205 212 178 154 158 160 171 205 222 203 173 170 176 177 168 73 20 14 13 17 15 0 352 351 349 347 349 349 347 347 347 344 341 340 339 338 336 337 339 336 333 332 329 327 327 327 327 326 325 324 324 323 322 322 321 320 321 321 322 321 319 317
149 160 188 197 204 207 212 227 247 249 247 240 220 192 163 134 124 166 220 237 200 197 204 189 189 182 150 150 162 175 199 207 158 132 138 131 131 153 157 103 42 17 11 13 13 2 347 342 339 334 335 338 338 341 343 341 336 334 334 331 330 332 334 331 329 329 326 324 324 324 324 324 323 322 322 321 321 320 319 318 319 319 320 320 319 317
167 169 193 198 199 206 213 222 240 255 239 171 147 174 164 144 174 210 216 202 173 190 197 162 158 149 147 159 166 153 151 135 109 113 127 132 134 139 124 75 43 26 20 12 10 4 339 330 330 327 329 336 338 339 342 339 331 329 328 324 324 329 330 328 328 327 324 321 321 320 321 321 320 319 318 318 320 318 316 316 317 317 317 318 318 316
174 174 187 187 187 189 204 213 222 244 216 138 126 135 219 189 205 203 149 62 107 148 140 138 151 155 153 149 140 132 132 129 120 121 131 140 132 119 96 56 19 3 0 356 357 357 336 322 321 321 326 333 336 338 341 337 329 328 325 321 324 328 327 326 327 325 321 319 319 318 318 318 318 317 316 317 318 316 313 313 315 315 315 315 315 314
188 186 189 191 194 188 197 213 205 188 185 166 153 176 205 196 194 164 137 108 87 133 142 135 144 169 158 136 132 137 132 129 131 128 128 137 139 128 94 23 338 328 340 341 337 339 332 320 316 317 322 329 334 337 339 336 329 323 318 319 324 326 323 323 325 322 320 320 319 318 318 318 317 317 316 317 318 314 311 312 313 313 313 312 312 310
211 200 181 180 199 192 186 213 211 176 195 201 169 170 198 182 125 136 133 121 135 170 166 145 148 166 150 129 129 133 132 137 144 138 138 155 172 192 218 249 271 293 321 323 325 330 328 320 318 319 322 329 335 335 334 334 327 316 312 318 323 322 321 323 323 321 320 320 319 319 319 318 317 317 317 318 317 314 311 311 311 310 309 309 308 305
255 226 153 149 207 235 227 198 177 129 282 273 45 27 346 92 105 143 134 124 144 164 159 149 152 155 148 137 129 128 140 147 145 151 160 165 176 195 208 225 257 324 329 329 333 333 330 326 324 321 320 324 330 330 329 328 324 314 313 318 321 321 321 322 320 319 319 318 318 318 318 316 316 316 318 318 317 313 310 308 306 306 305 304 303 301
287 204 156 166 204 213 227 221 184 161 305 5 70 57 59 54 45 149 147 140 137 136 132 134 138 139 143 139 130 134 149 147 142 155 168 160 175 193 191 198 296 333 335 336 335 333 332 331 327 323 321 320 323 326 325 324 322 317 317 320 322 323 323 321 318 317 315 314 315 315 315 314 313 313 315 315 315 314 311 307 305 302 300 299 299 298
232 170 156 205 205 184 209 258 268 324 343 340 154 150 132 115 78 76 104 117 111 107 103 101 113 126 128 127 129 132 136 135 137 149 160 162 176 177 92 4 342 336 333 333 334 334 335 332 327 324 321 318 321 324 323 321 322 321 321 324 328 329 326 322 319 316 313 313 313 312 312 312 311 311 312 311 312 311 309 307 305 300 297 296 295 294
147 159 178 191 185 151 296 266 257 32 7 308 233 203 159 143 121 102 102 109 108 108 101 81 73 87 100 109 122 124 123 124 117 113 124 132 62 29 4 346 338 332 329 330 334 337 335 330 325 322 318 317 320 320 319 319 322 323 326 330 333 333 328 323 321 318 315 315 314 313 313 312 310 310 310 310 310 310 308 306 303 298 296 297 295 291
149 174 179 152 159 193 224 207 176 140 205 235 208 180 163 151 132 121 119 117 115 119 119 103 83 71 74 78 89 110 121 120 93 80 87 60 22 357 344 340 335 330 331 335 336 334 331 326 322 318 314 315 317 317 318 321 323 326 332 335 334 332 328 325 323 319 316 317 316 314 315 314 311 311 310 309 309 310 309 309 306 299 297 297 297 293
185 183 174 162 185 219 218 195 176 156 170 205 178 163 167 163 141 132 133 132 127 127 127 122 115 102 80 66 70 90 109 105 80 70 55 351 347 344 345 344 337 332 334 335 332 329 326 324 323 319 316 317 319 321 322 323 326 331 335 335 332 330 328 327 324 318 315 316 315 313 313 311 310 310 310 308 308 308 308 309 308 304 299 296 296 293